World > North America > United States > Texas

Santo, Texas Regional Weather

Lat: 32.60N, Lon: 98.22W
Wx Zone: TXZ116Web Search

Our weather pages are very print friendly and they make great conversation starters.

Feedback


°F Click to change Santo hourly weather to Imperial units.Click to change Santo hourly weather to Metric units. °C
Santo Weather Map
UTC Time: 5/7/2021, 21:54
Your Time:

Santo, TX Regional Weather

Expires:202105072200;;754067
ASUS44 KFWD 072115
RWRTX 
NORTH TEXAS HOURLY WEATHER ROUNDUP
NATIONAL WEATHER SERVICE FORT WORTH TX
400 PM CDT FRI MAY 07 2021

NOTE: "FAIR" INDICATES FEW OR NO CLOUDS BELOW 12,000 FEET WITH NO
SIGNIFICANT WEATHER AND/OR OBSTRUCTIONS TO VISIBILITY.


TXZ083>090-098>101-113>116-127>130-139>142-154-155-072200-
WESTERN NORTH TEXAS
  
CITY           SKY/WX    TMP DP  RH WIND       PRES   REMARKS
WICHITA FALLS  FAIR      85  58  39 S14G30    29.96F                  
WF-KICKAPOO    FAIR      85  56  36 S16G25    29.99F                  
VERNON         FAIR      88  56  33 S21G31    29.95F                  
ABILENE        FAIR      85  55  35 S17G30    30.02F                  
ABILENE-DYESS  FAIR      84  54  34 SE20G32   30.01F                  
BRECKENRIDGE   FAIR      88  55  32 S18       30.02F                  
CISCO          FAIR      84  55  37 S17G25    30.03F                  
EASTLAND       FAIR      83  56  39 S17G25    30.03F                  
RANGER         FAIR      84  54  35 S20G25    30.03F                  
MINERAL WELLS  FAIR      85  58  39 S14G26    30.01F                  
STEPHENVILLE   FAIR      84  56  38 S13G22    30.08F                  
COMANCHE       FAIR      83  58  42 S14G21    30.06F                  
BROWNWOOD      FAIR      81  55  41 S15G23    30.06F                  
COLEMAN        FAIR      79  55  43 S13G22    30.06F                  
BRADY          FAIR      82  52  34 S14G21    30.07F                  
$$


SKY/WX - Weather  TMP - Temperature  DP - Dew Point  RH - Relative Humidity
WIND - Wind Direction/Speed PRES - Barometric Pressure VSB - Visibility
WCI - Wind Chill Index E13G22 Wind - East Wind 13 mph/Gusts of 22 mph